Tracking 20712 objects as of 28-May-2020
HD Live streaming from Space Station
objects crossing your sky now

DELTA 1 DEB

Track DELTA 1 DEB now!
10-day predictions


NORAD ID: 10252
Int'l Code: 1977-065CD
Perigee: 595.8 km
Apogee: 1,780.1 km
Inclination: 28.8 °
Period: 109.0 minutes
Semi major axis: 7558 km
RCS: 0.0465 m2 (small)
Launch date: July 14, 1977
Source: United States (US)
Launch site: AIR FORCE EASTERN TEST RANGE (AFETR)

Note: This is SATELLITE DEBRIS
aabbcc
Your satellite tracking list
Your tracking list is empty




NASA's NSSDC Master Catalog

Two Line Element Set (TLE):
1 10252U 77065CD  20149.47167906 +.00000138 +00000-0 +21744-4 0  9995
2 10252 028.8398 208.0035 0783401 151.1212 213.5088 13.21023886046780
Source of the keplerian elements: AFSPC